Baker, OR

2:51 PM PST on February 23, 2018 (GMT -0800)
Baker City Municipal

Weather History for KBKE - November, 2012

Change the Weather History Date:

Tuesday, November 6, 2012

  Actual Average Record
Temperature  
Mean Temperature 46 °F 37 °F  
Max Temperature 64 °F 49 °F 70 °F (2010)
Min Temperature 28 °F 25 °F 5 °F (2003)
Degree Days  
Heating Degree Days 19 28  
Month to date heating degree days 120 163  
Since 1 July heating degree days 1091 1242  
Cooling Degree Days 0 0  
Month to date cooling degree days 0 0  
Year to date cooling degree days 184 169  
Moisture  
Dew Point 33 °F    
Average Humidity 72    
Maximum Humidity 100    
Minimum Humidity 44    
Precipitation  
Precipitation 0.00 in 0.03 in 0.21 in (1973)
Month to date precipitation T 0.17  
Year to date precipitation 6.92 8.42  
Sea Level Pressure  
Sea Level Pressure 30.21 in    
Wind  
Wind Speed 5 mph (East)    
Max Wind Speed 22 mph    
Max Gust Speed 28 mph    
Visibility 5 miles    
Events Fog , Snow    
T = Trace of Precipitation, MM = Missing Value Source: NWS Daily Summary

Daily Weather History Graph

Daily Weather History Graph

Search for Another Location

Airport or City:

Trip Planner

Search our weather history database for the weather conditions in past years. The results will help you decide how hot, cold, wet, or windy it might be!

Date:

Astronomy

Nov. 06, 2012 Rise Set
Actual Time 6:36 AM PST 4:32 PM PST
Civil Twilight 6:06 AM PST 5:03 PM PST
Nautical Twilight 5:31 AM PST 5:38 PM PST
Astronomical Twilight 4:56 AM PST 6:12 PM PST
Moon 11:19 PM PST (11/6) 12:29 PM PST (11/6)
Length of Visible Light 10h 57m
Length of Day
9h 55m
Waning Gibbous, 52% of the Moon is Illuminated
Nov 6
Waning Gibbous
Nov 6
Last Quarter
Nov 13
New
Nov 20
First Quarter
Nov 28
Full

Hourly Weather History & Observations

Time (PST) Temp. Windchill Dew Point Humidity Pressure Visibility Wind Dir Wind Speed Gust Speed Precip Events Conditions
12:53 AM 33.1 °F - 33.1 °F 100% 30.30 in 8.0 mi Calm Calm - N/A   Clear
1:02 AM 30.2 °F 26.7 °F 28.4 °F 93% 30.28 in 4.0 mi ENE 3.5 mph - N/A   Scattered Clouds
1:04 AM 30.2 °F 25.4 °F 28.4 °F 93% 30.28 in 1.2 mi ENE 4.6 mph - N/A   Mostly Cloudy
1:06 AM 30.2 °F 26.7 °F 28.4 °F 93% 30.28 in 0.8 mi ENE 3.5 mph - N/A   Mist
1:16 AM 30.2 °F 25.4 °F 30.2 °F 100% 30.28 in 0.2 mi ENE 4.6 mph - N/A Fog Light Freezing Fog
1:32 AM 30.2 °F - 28.4 °F 93% 30.28 in 0.5 mi Calm Calm - N/A Fog Light Freezing Fog
1:43 AM 30.2 °F - 30.2 °F 100% 30.28 in 0.2 mi Calm Calm - N/A Fog Light Freezing Fog
1:53 AM 32.0 °F - 30.9 °F 96% 30.30 in 0.2 mi Calm Calm - 0.00 in Fog , Snow Light Snow
2:43 AM 30.2 °F - 30.2 °F 100% 30.27 in 0.5 mi Calm Calm - 0.00 in Fog Light Freezing Fog
2:53 AM 30.9 °F - 30.9 °F 100% 30.28 in 0.2 mi Calm Calm - 0.00 in Fog Light Freezing Fog
3:53 AM 30.0 °F - 30.0 °F 100% 30.28 in 0.2 mi Calm Calm - 0.00 in Fog Light Freezing Fog
4:53 AM 30.0 °F - 30.0 °F 100% 30.30 in 0.5 mi Calm Calm - N/A Fog Light Freezing Fog
5:10 AM 30.2 °F - 28.4 °F 93% 30.26 in 0.2 mi Calm Calm - N/A Fog Light Freezing Fog
5:40 AM 28.4 °F - 28.4 °F 100% 30.25 in 0.5 mi Calm Calm - 0.00 in Fog , Snow Light Snow
5:53 AM 28.0 °F 24.2 °F 28.0 °F 100% 30.30 in 0.2 mi SE 3.5 mph - 0.00 in Fog , Snow Light Snow
6:19 AM 30.2 °F - 30.2 °F 100% 30.25 in 0.5 mi Calm Calm - 0.00 in Fog Light Freezing Fog
6:31 AM 30.2 °F - 30.2 °F 100% 30.25 in 0.2 mi Calm Calm - 0.00 in Fog Light Freezing Fog
6:39 AM 28.4 °F - 28.4 °F 100% 30.25 in 0.5 mi Calm Calm - 0.00 in Fog Light Freezing Fog
6:48 AM 28.4 °F - 28.4 °F 100% 30.25 in 0.2 mi Calm Calm - 0.00 in Fog Light Freezing Fog
6:53 AM 30.0 °F - 30.0 °F 100% 30.30 in 0.2 mi Calm Calm - 0.00 in Fog Light Freezing Fog
7:13 AM 28.4 °F - 28.4 °F 100% 30.25 in 0.5 mi Calm Calm - N/A Fog Light Freezing Fog
7:50 AM 30.2 °F - 30.2 °F 100% 30.25 in 1.5 mi Calm Calm - N/A   Overcast
7:53 AM 30.9 °F - 30.9 °F 100% 30.32 in 1.8 mi Calm Calm - N/A   Mostly Cloudy
7:59 AM 32.0 °F - 30.2 °F 93% 30.25 in 3.0 mi Calm Calm - N/A   Mostly Cloudy
8:08 AM 32.0 °F - 32.0 °F 100% 30.25 in 5.0 mi Calm Calm - N/A   Scattered Clouds
8:53 AM 39.0 °F - 37.9 °F 96% 30.30 in 10.0 mi Calm Calm - N/A   Clear
9:53 AM 48.0 °F - 42.1 °F 80% 30.25 in 10.0 mi Calm Calm - N/A   Clear
10:53 AM 55.0 °F - 44.1 °F 67% 30.21 in 10.0 mi South 3.5 mph - N/A   Clear
11:53 AM 62.1 °F - 43.0 °F 50% 30.16 in 10.0 mi East 18.4 mph - N/A   Clear
12:53 PM 62.1 °F - 43.0 °F 50% 30.12 in 10.0 mi East 19.6 mph - N/A   Clear
1:53 PM 64.0 °F - 42.1 °F 45% 30.09 in 10.0 mi East 13.8 mph 24.2 mph N/A   Clear
2:53 PM 63.0 °F - 42.1 °F 46% 30.07 in 10.0 mi East 13.8 mph 19.6 mph N/A   Clear
3:53 PM 59.0 °F - 41.0 °F 51% 30.07 in 10.0 mi ENE 4.6 mph - N/A   Clear
4:53 PM 53.1 °F - 39.9 °F 61% 30.07 in 10.0 mi East 8.1 mph - N/A   Clear
5:53 PM 52.0 °F - 39.0 °F 61% 30.09 in 10.0 mi Calm Calm - N/A   Clear
6:53 PM 48.0 °F - 37.9 °F 68% 30.07 in 10.0 mi South 10.4 mph - N/A   Clear
7:53 PM 44.1 °F 42.5 °F 37.0 °F 76% 30.06 in 10.0 mi SSE 3.5 mph - N/A   Clear
8:53 PM 39.9 °F - 37.0 °F 89% 30.05 in 10.0 mi Calm Calm - N/A   Clear
9:53 PM 35.1 °F 32.2 °F 34.0 °F 96% 30.05 in 10.0 mi SE 3.5 mph - N/A   Clear
10:53 PM 36.0 °F 32.1 °F 34.0 °F 93% 30.04 in 10.0 mi SE 4.6 mph - N/A   Clear
11:53 PM 35.1 °F 32.2 °F 34.0 °F 96% 30.01 in 10.0 mi NE 3.5 mph - N/A   Clear